Location: Unspecified
(0.0000°N, 0.0000°E)
Time: 19:04:13
(UTC+00:00)

Vanguard 3 - Pass Details

Date: 26 November 2019
Orbit: 508 x 3263 km, 33.3° (Epoch: 06 December)

Event Time Altitude Azimuth Distance (km) Brightness Sun altitude
Rises 07:52:29 0° 231° (SW) 3,798 10.3 29.1°
Reaches altitude 10° 07:54:38 10° 230° (SW) 3,094 10.0 29.6°
Maximum altitude 08:02:37 81° 143° (SE) 1,749 9.5 31.4°
Drops below altitude 10° 08:17:21 10° 57° (ENE) 5,392 11.8 34.7°
Sets 08:22:24 0° 56° (NE) 6,738 12.2 35.8°
